[Date Prev][Date Next][Thread Prev][Thread Next] - [Date Index][Thread Index][Author Index]

2 Line ISS Keps 6-1



ISS
1 25544U 98067A   06151.95543981  .00015184  00000-0  10029-3 0   329
2 25544 051.6349 271.0604 0008753 273.9947 227.9714 15.75793142430603
----
Via the sarex mailing list at AMSAT.ORG courtesy of AMSAT-NA.
To unsubscribe, send "unsubscribe sarex" to Majordomo@amsat.org



AMSAT Top AMSAT Home